Location: Praha
(50.0830°N, 14.4670°E)
Time: 19:00:22
(UTC+02:00)

ISS - Pass Details

Date: 15 July 2021
Orbit: 419 x 421 km, 51.6° (Epoch: 02 August)

Event Time Altitude Azimuth Distance (km) Brightness Sun altitude
Rises 22:55:46 0° 243° (WSW) 2,363 0.1 -12.8°
Reaches altitude 10° 22:57:52 10° 241° (WSW) 1,501 -0.9 -12.9°
Maximum altitude 23:01:13 67° 158° (SSE) 458 -3.9 -13.2°
Drops below altitude 10° 23:04:34 10° 75° (ENE) 1,505 -1.1 -13.5°
Sets 23:06:41 0° 73° (ENE) 2,371 -0.1 -13.6°
